Regional Weather Roundup
Issued by NWS Boston, MA

Current Version | Previous Version | Text Only | Print | Product List | Glossary Off
Versions: 1 2 3 4 5 6 7 8 9 10 11 12 13 14 15 16 17 18 19 20 21 22 23 24 25 26 27 28 29 30 31 32 33 34 35 36 37 38 39 40 41 42 43 44 45 46 47 48 49 50
000 ASUS41 KBOX 231110 RWRBOX REGIONAL WEATHER ROUNDUP NATIONAL WEATHER SERVICE TAUNTON MA 600 AM EST THU NOV 23 2017 NOTE: "FAIR" INDICATES FEW OR NO CLOUDS BELOW 12,000 FEET WITH NO SIGNIFICANT WEATHER AND/OR OBSTRUCTIONS TO VISIBILITY. MAZALL-231200- EASTERN MASSACHUSETTS CITY SKY/WX TMP DP RH WIND PRES REMARKS BOSTON PTCLDY 33 21 61 NW7 30.02R WCI 27 BEVERLY PTCLDY 31 19 61 NW10 30.01R WCI 22 LAWRENCE CLEAR 32 19 58 NW6 30.03R WCI 26 BEDFORD CLEAR 29 19 66 W5 30.02R WCI 24 BLUE HILL N/A 28 21 75 NW9 29.98R WCI 19 NORWOOD CLEAR 31 23 72 W6 30.03R WCI 25 MARSHFIELD CLEAR 32 23 69 VRB5 30.02R WCI 27 PLYMOUTH CLEAR 31 24 75 W8 30.02R WCI 23 TAUNTON CLEAR 31 22 69 W5 30.03R WCI 26 NEW BEDFORD CLEAR 32 22 66 NW5 30.02R WCI 27 $$ MAZALL-231200- CAPE COD AND THE ISLANDS CITY SKY/WX TMP DP RH WIND PRES REMARKS FALMOUTH CLEAR 30 25 80 NW7 30.03R WCI 23 HYANNIS CLEAR 33 24 69 NW8 30.00R WCI 26 CHATHAM PTCLDY 35 27 72 W5 30.01R WCI 31 PROVINCETOWN PTCLDY 36 25 64 NW16G23 30.01R WCI 26 NANTUCKET PTCLDY 36 28 73 NW9 30.00S WCI 29 MARTHAS VNYRD CLEAR 34 23 64 NW10 30.02R WCI 26 $$ MAZALL-231200- CENTRAL AND WESTERN MASSACHUSETTS CITY SKY/WX TMP DP RH WIND PRES REMARKS WORCESTER CLEAR 26 16 65 NW9 29.98S WCI 17 FITCHBURG CLEAR 32 20 61 NW13 30.03R WCI 22 ORANGE CLEAR 27 18 69 CALM 30.04R SPRINGFIELD CLEAR 22 18 86 NE6 30.04S WCI 14 WESTFIELD CLEAR 31 21 66 N10 30.04F WCI 22 NORTH ADAMS CLOUDY 26 17 68 VRB6 30.07R WCI 19 PITTSFIELD CLOUDY 27 18 69 NW10 30.02R WCI 17 $$ RIZALL-231200- RHODE ISLAND CITY SKY/WX TMP DP RH WIND PRES REMARKS PROVIDENCE CLEAR 31 23 72 NW5 30.05R WCI 26 NEWPORT CLEAR 33 22 63 NW12 30.03R WCI 24 BLOCK ISLAND CLEAR 34 22 61 N13G21 30.04S WCI 25 SMITHFIELD CLEAR 28 22 78 NW8 30.02R WCI 20 WESTERLY CLEAR 30 25 81 CALM 30.04S $$ CTZALL-231200- CONNECTICUT CITY SKY/WX TMP DP RH WIND PRES REMARKS BRADLEY INTL CLEAR 30 21 69 N6 30.04F WCI 24 HARTFORD CLEAR 32 21 64 VRB6 30.05F WCI 26 BRIDGEPORT CLEAR 32 21 64 NW7 30.06S WCI 26 DANBURY CLEAR 30 19 63 N5 30.06S WCI 25 GROTON CLEAR 31 23 72 NW3 30.04S NEW HAVEN CLEAR 33 21 61 N5 30.05S WCI 29 CHESTER FAIR 30 21 69 NW10 30.02S WCI 21 MERIDEN CLEAR 31 21 66 N6 30.05S WCI 25 WILLIMANTIC CLEAR 32 21 64 NW5 30.04S WCI 27 OXFORD CLEAR 29 20 69 NW10 30.02S WCI 20 $$ MEZ002-015-021-024-NHZ003-005-008-011-012-014-VTZ005-008-231200- NORTHERN NEW ENGLAND CITY SKY/WX TMP DP RH WIND PRES REMARKS PORTLAND ME PTCLDY 28 21 75 W6 29.96R WCI 22 BANGOR ME PTCLDY 28 20 71 VRB7 29.88R WCI 21 CONCORD NH PTCLDY 27 17 66 NW9 30.02R WCI 18 MANCHESTER NH PTCLDY 30 17 58 N8 29.99S WCI 22 NASHUA NH CLEAR 30 21 69 W6 30.02R WCI 24 PORTSMOUTH NH PTCLDY 29 19 65 NW9 29.98R WCI 21 JAFFREY NH CLEAR 27 19 72 NW5 30.00R WCI 22 KEENE NH CLEAR 26 17 68 N9 30.05R WCI 17 BURLINGTON VT PTCLDY 22 12 65 N3 30.12S MT. WASHINGTON MOCLDY 7 -8 51 NW59 N/A WCI -23 $$ NYZ052-076-231200- EASTERN NEW YORK CITY SKY/WX TMP DP RH WIND PRES REMARKS ALBANY CLOUDY 30 16 56 W14 30.12S WCI 19 NEW YORK CITY CLEAR 34 21 59 NW14 30.09R WCI 25 $$ ANZALL-231200- MARINE OBSERVATIONS STATION/POSITION TIME TEMP WIND PRES VSBY WAVE AIR SEA DIR/SP/G HT/PER (UTC) (F) (DEG/KT/KT) (MB) (MI) (FT/S) BOSTON BUOY 1050 36 51 310/ 21/ 25 1014.6R 3/ 4 BUZZARDS BAY 1000 36 320/ 20/ 22 1016.8R NANTUCKET SOUND 1050 37 48 310/ 16/ 19 1015.9R 3/ 4 MASS BAY-STELLWA 1004 35 49 320/ 16/ 21 1014.2R 3/ 3 ISLE OF SHOALS 1000 33 310/ 18/ 21 1014.3R S OF BLOCK IS NOT AVBL $$ ......................KEY......................... SKY/WX - SKY CONDITION/PRESENT WEATHER TMP - TEMPERATURE IN FAHRENHEIT DWPT - DEWPOINT IN FAHRENHEIT RH - RELATIVE HUMIDITY IN PERCENT WIND - DIRECTION AND SPEED IN MPH PRES - MEAN SEA LEVEL PRESSURE IN INCHES OF HG WCI - WIND CHILL INDEX VSB - VISIBILITY IN MILES HX - HEAT INDEX TC - TEMPERATURE IN CELSIUS VRB - VARIABLE WIND DIRECTION N/A - NOT AVAILABLE

USA.gov is the U.S. government's official web portal to all federal, state and local government web resources and services.